Weather in Log

Russia / Volgograd Oblast     49°28′53″N   43°51′33″E
temp.,
°C
wind,
m/s
gust,
m/s
humid.,
%
clouds,
%
prec.,
mm/h
press.,
hPa
HPBL,
m
31 july, sat
sat3100:00+22wsw226571 0.0 100921
03:00+22wsw22695 0.6 100919
06:00+24s23586 0.0 1009102
09:00+31wsw45295 0.0 10091123
12:00+34sw452362 0.0 10093234
15:00+34sw342171 0.0 10083134
18:00+30nnw5834100 0.0 1009208
21:00+27ne48485 0.0 1010177
1 august, sun
sun100:00+23ne47651 0.0 1011118
03:00+22e33612 0.0 101250
06:00+23e24564 0.0 1012116
09:00+32se34230 0.0 1012715
12:00+36ese44152 0.0 10113381
15:00+37se33120 0.0 10113789
18:00+35sse33140 0.0 1010775
21:00+27e33220 0.0 101126
2 august, mon
mon200:00+25ese44251 0.0 101239
03:00+23e33504 0.0 101228
06:00+25se234299 0.0 101264
09:00+34se342184 0.0 1012597
12:00+36se242126 0.3 10112613
15:00+38sse451587 0.3 10094039
18:00+32nw5824100 0.0 1009250
21:00+26nne22321 0.0 101012
3 august, tue
tue300:00+26se33284 0.0 100920
03:00+23sse223010 0.0 101012
06:00+26sse2228100 0.0 101032
09:00+34s352220 0.0 1010829
12:00+39s67105 0.0 10083768
15:00+39ssw66123 0.0 10064278
18:00+37s67195 0.0 10051568
21:00+23n9147369 0.4 1009268
4 august, wed
wed400:00+21n6980100 0.1 1011293
03:00+21wnw2285100 0.8 101161
06:00+21nnw698365 1.1 1011271
09:00+23nne3370100 1.1 1013558
12:00+29nnw45431 0.0 10131318
15:00+31nnw453295 0.0 10122944
18:00+30nnw5531100 0.0 10121200
21:00+24nne41048100 0.0 1014279